This is the latest recevied weather packets stored in our database for station/object N0FDH. If no packets are shown the sender has not sent any weather packets the latest 10 day(s).
| Time | Temp. | Humidity | Pressure | Rain* | Wind** | Luminosity | Snow |
|---|---|---|---|---|---|---|---|
| 1777872274 | 12.78° C | 43% | 1000.2 hPa | 0 mm | - | 0 W/m² | - |
| 1777871971 | 12.78° C | 44% | 1000.4 hPa | 0 mm | - | 0 W/m² | - |
| 1777871667 | 12.78° C | 44% | 1000.5 hPa | 0 mm | - | 0 W/m² | - |
| 1777871363 | 12.78° C | 44% | 1000.4 hPa | 0 mm | - | 0 W/m² | - |
| 1777871061 | 12.78° C | 43% | 1000.8 hPa | 0 mm | - | 0 W/m² | - |
| 1777870758 | 12.78° C | 44% | 1000.6 hPa | 0 mm | - | 0 W/m² | - |
| 1777870454 | 12.78° C | 45% | 1000.8 hPa | 0 mm | - | 0 W/m² | - |
| 1777870150 | 12.78° C | 44% | 1001 hPa | 0 mm | - | 0 W/m² | - |
| 1777869848 | 12.78° C | 45% | 1001.1 hPa | 0 mm | - | 0 W/m² | - |
| 1777869545 | 12.78° C | 44% | 1001 hPa | 0 mm | - | 0 W/m² | - |
| 1777869242 | 12.22° C | 43% | 1001.3 hPa | 0 mm | - | 0 W/m² | - |
| 1777868939 | 12.22° C | 44% | 1001.3 hPa | 0 mm | - | 0 W/m² | - |
| 1777868635 | 12.22° C | 45% | 1001.4 hPa | 0 mm | - | 0 W/m² | - |
| 1777868332 | 12.22° C | 45% | 1001.5 hPa | 0 mm | - | 0 W/m² | - |
| 1777868028 | 11.67° C | 45% | 1001.5 hPa | 0 mm | - | 0 W/m² | - |
| 1777867724 | 11.11° C | 50% | 1001.5 hPa | 0 mm | - | 0 W/m² | - |
| 1777867422 | 11.11° C | 52% | 1001.7 hPa | 0 mm | - | 0 W/m² | - |
| 1777867117 | 10.56° C | 53% | 1001.8 hPa | 0 mm | - | 0 W/m² | - |
| 1777866816 | 10.56° C | 51% | 1002.1 hPa | 0 mm | - | 0 W/m² | - |
| 1777866512 | 10.56° C | 52% | 1002.5 hPa | 0 mm | - | 0 W/m² | - |
| 1777866210 | 10.56° C | 52% | 1002.4 hPa | 0 mm | - | 0 W/m² | - |
| 1777865907 | 10.56° C | 53% | 1002.4 hPa | 0 mm | - | 0 W/m² | - |
| 1777865605 | 10.56° C | 50% | 1002.7 hPa | 0 mm | - | 0 W/m² | - |
| 1777865301 | 10.56° C | 52% | 1002.7 hPa | 0 mm | - | 0 W/m² | - |
| 1777864998 | 10.56° C | 51% | 1002.8 hPa | 0 mm | - | 0 W/m² | - |
* Rain latest hour (hover to see other rain measurements)
** Current wind speed in m/s (hover to see current wind gust speed)